Tracking 29892 objects as of 21-Nov-2024
HD Live streaming from Space Station
objects crossing your sky now

CHUANG XIN 1 (CZ-1)

Track CHUANG XIN 1 (CZ-1) now!
10-day predictions
CHUANG XIN 1 (CZ-1) is classified as:


NORAD ID: 28058
Int'l Code: 2003-049B
Perigee: 729.6 km
Apogee: 748.9 km
Inclination: 98.6 °
Period: 99.4 minutes
Semi major axis: 7110 km
RCS: 0.5789 m2 (medium)
Launch date: October 21, 2003
Source: People's Republic of China (PRC)
Launch site: Taiyaun Space Center, China (TSC)

Prototype of advanced telecommunications satellite for LEO.
Your satellite tracking list
Your tracking list is empty




NASA's NSSDC Master Catalog

Two Line Element Set (TLE):
1 28058U 03049B   24325.91631461  .00000555  00000-0  16160-3 0  9998
2 28058  98.5682 208.0274 0013588 118.1691 242.0876 14.48028857113290
Source of the keplerian elements: AFSPC